Home > Time Zones > World Clock > Weather > India > Ajmer > Past weeks

Flag for India Weather past 2 weeks in Ajmer, Rajasthan, India

Now
75 °F

Haze.


Feels Like: 78 °F
Forecast: 77 / 95 °F
Wind: 2 mph from North

Location: Jaipur / Sanganer

Current Time: Apr 2, 2015 at 4:33:36 AM

Latest Report: Apr 2, 2015 at 3:00 AM


Visibility: 2 mi

Pressure: 29.74 "Hg

Humidity: 44%

Dew point: 52 °F

Location of AjmerLocation

Historic Weather in Ajmer — Graph

°F

Ajmer temperature yesterday

Maximum temperature yesterday: 93 °F (at 3:00 PM)
Minimum temperature yesterday: 72 °F (at 3:00 AM)
Average temperature yesterday: 83 °F

Past Weeks' High & Low Weather Summary

 TemperatureHumidityPressure
High99 °F (Mar 25, 4:00 PM)88% (Mar 18, 7:00 AM)30.09 "Hg (Mar 18, 7:00 AM)
Low61 °F (Mar 18, 6:00 AM)17% (Mar 24, 3:30 PM)29.71 "Hg (Mar 30, 5:00 PM)
Average82 °F41%29.94 "Hg
* Reported Mar 18 2:30 AM — Apr 2 3:00 AM, Ajmer, Weather by CustomWeather, © 2015

Note: Actual official high and low records may vary slightly from our data, if they occured in-between our weather recording intervals... More about our weather records

Advertising

Ajmer weather history for previous 24 hours

 ConditionsComfort  
Time TempWeatherWind HumidityBarometerVisibility
3:00 AM
Thu, Apr 2
75 °FHaze.2 mph44%29.74 "Hg2 mi
2:00 AM77 °FWarm.N/A42%29.77 "HgN/A
1:00 AM77 °FHaze.2 mph42%29.77 "Hg2 mi
12:00 AM77 °FHaze.3 mph42%29.80 "Hg2 mi
11:00 PM
Wed, Apr 1
84 °FHaze.2 mph31%29.80 "Hg2 mi
10:00 PM82 °FHaze.2 mph32%29.77 "Hg2 mi
9:00 PM86 °FHaze.3 mph27%29.77 "Hg2 mi
8:00 PM88 °FHaze.3 mph25%29.74 "Hg2 mi
7:00 PM91 °FHaze.5 mph21%29.74 "Hg2 mi
6:00 PM93 °FHaze.7 mph20%29.74 "Hg2 mi
5:00 PM93 °FScattered clouds.8 mph21%29.74 "Hg2 mi
4:00 PM93 °FScattered clouds.7 mph21%29.74 "Hg2 mi
3:00 PM93 °FScattered clouds.6 mph23%29.77 "Hg2 mi
2:00 PM91 °FScattered clouds.9 mph26%29.80 "Hg2 mi
1:00 PM90 °FHaze.7 mph31%29.86 "Hg2 mi
12:00 PM88 °FPartly sunny.7 mph38%29.89 "Hg2 mi
11:00 AM82 °FPartly sunny.7 mph51%29.89 "Hg2 mi
9:00 AM79 °FPassing clouds.7 mph61%29.89 "Hg1 mi
8:00 AM75 °FPassing clouds.6 mph69%29.89 "Hg1 mi
6:00 AM72 °FFog.5 mph78%29.86 "Hg1 mi
5:00 AM73 °FHaze.3 mph69%29.83 "Hg1 mi
4:00 AM72 °FHaze.3 mph69%29.83 "Hg1 mi
Weather by CustomWeather, © 2015

See weather overviewHow to use our weather pages